Regional Weather Roundup
Issued by NWS Charleston, SC

Current Version | Previous Version | Graphics & Text | Print | Product List | Glossary On
Versions: 1 2 3 4 5 6 7 8 9 10 11 12 13 14 15 16 17 18 19 20 21 22 23 24 25 26 27 28 29 30 31 32 33 34 35 36 37 38 39 40 41 42 43 44 45 46 47 48 49 50
000
ASUS42 KCHS 210725
RWRCHS

REGIONAL WEATHER ROUNDUP
NATIONAL WEATHER SERVICE CHARLESTON SC
300 AM EDT THU SEP 21 2017

NOTE: "FAIR" INDICATES FEW OR NO CLOUDS BELOW 12,000 FEET WITH NO
SIGNIFICANT WEATHER AND/OR OBSTRUCTIONS TO VISIBILITY.

NOT ALL STATIONS ARE QUALITY CONTROLLED. USE DATA WITH CAUTION...
ESPECIALLY DEWPOINT OBSERVATIONS.

SCZ027-030-031-034>040-042>050-210800-
...SOUTHEAST SOUTH CAROLINA...

CITY           SKY/WX    TMP DP  RH WIND       PRES   REMARKS
N CHARLESTON   CLEAR     73  73 100 S3        30.00F
WATERFRONT PRK   N/A     77  75  93 VRB2      29.85F
JOHNS ISLAND   FAIR      75  75 100 CALM      30.01S
PINOPOLIS        N/A     75  73  94 VRB2      29.94S
MONCKS CORNER  FAIR      70  70 100 CALM      30.00F
SUMMERVILLE    FAIR      70  70 100 CALM      30.02F
BEAUFORT MCAS  CLEAR     74  73  97 CALM      30.01F
BEAUFORT ARPT  FAIR      73  72  94 CALM      30.00F
HILTON HEAD IS CLEAR     75  75 100 CALM      30.01F
WALTERBORO     SUNNY     70  70 100 CALM      30.02S
ALLENDALE      NOT AVBL

...SOUTHERN MIDLANDS AND PEE DEE...

CITY           SKY/WX    TMP DP  RH WIND       PRES   REMARKS
GEORGETOWN     FAIR      70  70 100 CALM      30.01F
KINGSTREE      FAIR      68  68 100 CALM      30.00F
ORANGEBURG     CLEAR     72  70  93 CALM      30.01F FOG
BARNWELL       FAIR      72  72 100 CALM      30.01F
AIKEN          FAIR      68  68 100 CALM      30.05F
MANNING        FAIR      72  72 100 CALM      30.00F
COLUMBIA       PTCLDY    72  68  87 W3        29.99F
SUMTER         CLEAR     73  70  89 SW3       29.98F
FLORENCE       CLEAR     69  69 100 SW6       29.99F
MYRTLE BEACH   CLEAR     74  73  97 W7        30.01F
N MYRTLE BEACH CLEAR     75  73  93 CALM      29.99F

$$

GAZ063-065-086>088-099>101-113>116-118-119-134>141-150-210800-
...SOUTHEAST GEORGIA...

CITY           SKY/WX    TMP DP  RH WIND       PRES   REMARKS
SAVANNAH ARPT  CLEAR     73  71  93 CALM      30.01F
HUNTER AAF     CLEAR     73  71  95 CALM      29.98F
FORT STEWART   CLEAR     71  69  92 CALM      29.98F
STATESBORO     CLEAR     71  70  96 CALM      30.01F
SYLVANIA       PTSUNNY   71  71 100 CALM      30.02F
CLAXTON        FAIR      71  70  97 CALM      30.01S

...CSRA...CENTRAL AND FAR SOUTHEAST GEORGIA...

CITY           SKY/WX    TMP DP  RH WIND       PRES   REMARKS
THOMSON        CLEAR     68  67  96 CALM      30.06F
AUGUSTA-BUSH   PTCLDY    71  69  93 CALM      30.00F FOG
AUGUSTA-DANIEL CLEAR     75  72  90 SE3       30.01F
SWAINSBORO     FAIR      70  70 100 CALM      30.02F
VIDALIA        CLEAR     72  72 100 CALM      30.02S
EASTMAN        FAIR      70  70 100 CALM      30.03F FOG
HAZLEHURST     FAIR      72  70  94 CALM      30.00F
ALMA           CLEAR     70  68  93 CALM      30.00F FOG
WAYCROSS       CLEAR     72  69  90 CALM      30.00F FOG
JESUP          NOT AVBL
BAXLEY         FAIR      70  70 100 CALM      30.00F
BRUNSWICK      CLEAR     72  70  94 CALM      30.00F FOG
SAINT SIMONS   PTCLDY    78  75  90 CALM      29.99F

$$

SCZ027-028-034-036>038-045-046-048>050-GAZ119-141-210800-
...LAKE AND SUPPLEMENTAL COASTAL OBSERVATIONS...

STATION/POSITION TIME  TEMP    WIND        PRES    WAVE   SWELL
                       AIR SEA DIR/SP/G            HT/PER HT/PER/DIR
                 (UTC) (F)     (DEG/KT/KT) (MB)    (FT/S) (FT/S/D)
WINYAH BAY       NOT AVBL
LAKE MURRAY      NOT AVBL
ACE BASIN NERRS  0545   75        CALM     1017.0
FORT PULASKI     0636   78 80   CALM  /  1 1016.5F
SAPELO ISLAND    0600   78        CALM     1016.0

$$

ANZ835-935-AMZ111-154-330-350-352-354-370-450-454-472-210800-
...C-MAN AND BUOY OBSERVATIONS...

STATION/POSITION TIME  TEMP    WIND        PRES    WAVE   SWELL
                       AIR SEA DIR/SP/G            HT/PER HT/PER/DIR
                 (UTC) (F)     (DEG/KT/KT) (MB)    (FT/S) (FT/S/D)
BUOY 41004       0650   81 81  230/  8/ 10 1015.4F   4/11   3/ 90/11
BUOY 41008       0650   80 80  190/  6/  6 1015.7F   3/13   2/ 90/13
FOLLY BEACH CMAN 0700   79     220/  9/ 11 1016.6F
CAPERS NEARSHORE 0608   77 80  220/ 10/ 14 1016.0F
FRIPP NEARSHORE  0608   79     220/  8/ 10 1022.1R


STATION/POSITION TIME  TEMP    WIND        PRES    WAVE   SWELL
                       AIR SEA DIR/SP/G            HT/PER HT/PER/DIR
                 (UTC) (F)     (DEG/KT/KT) (MB)    (FT/S) (FT/S/D)
5E ST. MARYS GA  0700      82                N/A     2/13   2/100/13
FRYING PAN BUOY  0650   80 82  260/ 12/ 14 1015.5F   3/11   2/110/11
BUOY 41025       0650   76 75  260/  2/  4 1014.9F   5/10   5/ 60/10
CAPE LOOKOUT NC  0700   77     260/  7/  9 1014.8F
BUOY 41002       0650   78 80  180/  4/  6 1015.8F   7/11   7/ 10/11
BUOY 41010       0650      85   90/  6/  8 1015.1F   5/12   5/12
ST AUGUSTINE FL  0700   77 83  250/  5/  5 1015.5F


$$




USA.gov is the U.S. government's official web portal to all federal, state and local government web resources and services.